Weather in Danao

Philippines     9°33′33″N   123°45′26″E
temp.,
°C
wind,
m/s
gust,
m/s
humid.,
%
clouds,
%
prec.,
mm/h
press.,
hPa
HPBL,
m
17 april, sat
sat1723:00+27nne4480100 1.6 1010173
02:00+28n4477100 3.9 1008380
05:00+28n4477100 0.3 1008672
08:00+28nnw5676100 0.5 1010667
11:00+28nnw6777100 0.6 1010667
14:00+29n7974100 1.5 1007545
17:00+29n5675100 0.6 1006248
20:00+29nnw2271100 2.1 100969
18 april, sun
sun1823:00+29ssw1270100 0.8 1009169
02:00+28ssw2271100 0.8 1007384
05:00+28wsw3372100 0.0 1006672
08:00+28nw4475100 0.3 1009321
11:00+28w4570100 0.1 1008576
14:00+29wsw6871100 0.1 1005512
17:00+29w2367100 0.0 100566
20:00+29ssw2372100 0.0 1007160
19 april, mon
mon1923:00+29wnw71073100 0.0 1007777
02:00+28w91273100 0.0 1005795
05:00+28w7971100 0.0 1006808
08:00+28wsw6874100 0.0 1007801
11:00+28wsw71074100 0.1 1007977
14:00+28wsw7974100 2.6 1005799
17:00+28wsw71074100 0.5 1006921
20:00+28wsw7975100 0.5 1007809
20 april, tue
tue2023:00+28sw6876100 0.0 1007797
02:00+28wsw6775100 0.1 1005848
05:00+28sw6776100 0.4 1005837
08:00+28sw5675100 0.5 1007748
11:00+28sw6774100 0.1 1007822
14:00+29wsw6774100 0.7 1006857
17:00+29sw7877100 0.0 1005733
20:00+29wsw6677100 0.1 1008765
21 april, wed
wed2123:00+28sw7776100 0.0 1008751
02:00+28wsw7776100 0.6 1006713
05:00+28sw4576100 0.1 1007699
08:00+28sw667682 0.1 1009738
11:00+29sw8877100 0.0 1008882
14:00+29sw111076100 1.0 1006800
17:00+29sw111179100 0.4 1006660
20:00+28sw111181100 0.9 1008747